• In Hungary
  • List of Countries
  • For 7 days
  • Water Temperature
  • Satellite Maps
  • Weather Map
  • News
  • Weather Widgets
  • user-avatar
    Login

    Hourly Weather Zborov

    Today, 12 November, Monday

    Time Temperature Precipitation Wind Pressure Humidity
    00:00 +3°C° 0 mm 5 mps 737 mmHg 88%
    01:00 +3°C° 0 mm 5 mps 737 mmHg 89%
    02:00 +4°C° 0 mm 4 mps 737 mmHg 89%
    03:00 +4°C° 0 mm 4 mps 738 mmHg 90%
    04:00 +4°C° 0 mm 4 mps 738 mmHg 90%
    05:00 +4°C° 0 mm 4 mps 738 mmHg 90%
    06:00 +3°C° 0 mm 4 mps 738 mmHg 90%
    07:00 +3°C° 0 mm 4 mps 739 mmHg 89%
    08:00 +3°C° 0 mm 4 mps 739 mmHg 88%
    09:00 +4°C° 0 mm 4 mps 739 mmHg 83%
    10:00 +5°C° 0 mm 4 mps 740 mmHg 79%
    11:00 +6°C° 0 mm 5 mps 740 mmHg 74%
    12:00 +7°C° 0 mm 5 mps 740 mmHg 71%
    13:00 +8°C° 0 mm 5 mps 740 mmHg 68%
    14:00 +8°C° 0 mm 5 mps 740 mmHg 66%
    15:00 +7°C° 0 mm 5 mps 740 mmHg 69%
    16:00 +6°C° 0 mm 5 mps 740 mmHg 72%
    17:00 +5°C° 0 mm 5 mps 740 mmHg 75%
    18:00 +5°C° 0 mm 5 mps 740 mmHg 77%
    19:00 +3°C° 0 mm 5 mps 740 mmHg 80%
    20:00 +3°C° 0 mm 5 mps 740 mmHg 82%
    21:00 +3°C° 0 mm 5 mps 741 mmHg 84%
    22:00 +3°C° 0 mm 5 mps 741 mmHg 86%
    23:00 +2°C° 0 mm 6 mps 741 mmHg 87%

    Tomorrow, 13 November, Tuesday

    Time Temperature Precipitation Wind Pressure Humidity
    00:00 +2°C° 0 mm 6 mps 741 mmHg 88%
    01:00 +3°C° 0 mm 6 mps 741 mmHg 89%
    02:00 +3°C° 0 mm 6 mps 741 mmHg 90%
    03:00 +3°C° 0 mm 6 mps 741 mmHg 90%
    04:00 +2°C° 0 mm 6 mps 741 mmHg 90%
    05:00 +2°C° 0 mm 6 mps 741 mmHg 90%
    06:00 +2°C° 0 mm 6 mps 741 mmHg 89%
    07:00 +2°C° 0 mm 6 mps 741 mmHg 88%
    08:00 +2°C° 0 mm 6 mps 741 mmHg 87%
    09:00 +3°C° 0 mm 6 mps 741 mmHg 82%
    10:00 +3°C° 0 mm 6 mps 741 mmHg 76%
    11:00 +4°C° 0 mm 7 mps 741 mmHg 71%
    12:00 +5°C° 0 mm 6 mps 740 mmHg 68%
    13:00 +5°C° 0 mm 6 mps 740 mmHg 65%
    14:00 +7°C° 0 mm 6 mps 740 mmHg 62%
    15:00 +5°C° 0 mm 6 mps 739 mmHg 63%
    16:00 +4°C° 0 mm 6 mps 739 mmHg 65%
    17:00 +4°C° 0 mm 6 mps 739 mmHg 67%
    18:00 +3°C° 0 mm 6 mps 739 mmHg 67%
    19:00 +3°C° 0 mm 6 mps 739 mmHg 68%
    20:00 +2°C° 0 mm 6 mps 738 mmHg 68%
    21:00 +2°C° 0 mm 6 mps 738 mmHg 69%
    22:00 +2°C° 0 mm 6 mps 738 mmHg 69%
    23:00 +2°C° 0 mm 5 mps 738 mmHg 69%

    Day after tomorrow, 14 November, Wednesday

    Time Temperature Precipitation Wind Pressure Humidity
    00:00 +2°C° 0.3 mm 5 mps 738 mmHg 72%
    01:00 +2°C° 0.3 mm 5 mps 737 mmHg 75%
    02:00 +3°C° 0.3 mm 4 mps 737 mmHg 78%
    03:00 +3°C° 1.1 mm 4 mps 737 mmHg 82%
    04:00 +4°C° 1.1 mm 4 mps 737 mmHg 85%
    05:00 +4°C° 1.1 mm 4 mps 737 mmHg 89%
    06:00 +4°C° 0.3 mm 4 mps 737 mmHg 90%
    07:00 +5°C° 0.3 mm 3 mps 737 mmHg 92%
    08:00 +5°C° 0.3 mm 3 mps 737 mmHg 94%
    09:00 +6°C° 0 mm 4 mps 738 mmHg 88%
    10:00 +7°C° 0 mm 5 mps 738 mmHg 82%
    11:00 +8°C° 0 mm 5 mps 738 mmHg 76%
    12:00 +8°C° 0.1 mm 5 mps 738 mmHg 76%
    13:00 +7°C° 0.1 mm 5 mps 737 mmHg 76%
    14:00 +7°C° 0.1 mm 5 mps 737 mmHg 75%
    15:00 +7°C° 0.1 mm 5 mps 737 mmHg 77%
    16:00 +6°C° 0.1 mm 4 mps 737 mmHg 80%
    17:00 +6°C° 0.1 mm 4 mps 738 mmHg 82%
    18:00 +6°C° 0.1 mm 4 mps 738 mmHg 83%
    19:00 +6°C° 0.1 mm 4 mps 738 mmHg 85%
    20:00 +5°C° 0.1 mm 4 mps 738 mmHg 87%
    21:00 +5°C° 0.1 mm 4 mps 738 mmHg 88%
    22:00 +5°C° 0.1 mm 4 mps 738 mmHg 89%
    23:00 +5°C° 0.1 mm 5 mps 738 mmHg 90%

    15 November, Thursday

    Time Temperature Precipitation Wind Pressure Humidity
    00:00 +5°C° 0.2 mm 5 mps 738 mmHg 90%
    01:00 +5°C° 0.2 mm 5 mps 738 mmHg 90%
    02:00 +5°C° 0.2 mm 5 mps 738 mmHg 90%
    03:00 +5°C° 0.1 mm 5 mps 738 mmHg 90%
    04:00 +5°C° 0.1 mm 5 mps 738 mmHg 89%
    05:00 +5°C° 0.1 mm 5 mps 738 mmHg 89%
    06:00 +5°C° 0.1 mm 5 mps 738 mmHg 88%
    07:00 +5°C° 0.1 mm 4 mps 738 mmHg 87%
    08:00 +5°C° 0.1 mm 4 mps 739 mmHg 86%
    09:00 +5°C° 0.1 mm 4 mps 739 mmHg 84%
    10:00 +5°C° 0.1 mm 4 mps 739 mmHg 82%
    11:00 +5°C° 0.1 mm 5 mps 739 mmHg 80%
    12:00 +5°C° 0.1 mm 4 mps 740 mmHg 79%
    13:00 +5°C° 0.1 mm 4 mps 740 mmHg 79%
    14:00 +5°C° 0.1 mm 4 mps 740 mmHg 79%
    15:00 +5°C° 0 mm 4 mps 740 mmHg 81%
    16:00 +5°C° 0 mm 3 mps 740 mmHg 83%
    17:00 +5°C° 0 mm 3 mps 741 mmHg 85%
    18:00 +5°C° 0.1 mm 3 mps 741 mmHg 86%
    19:00 +4°C° 0.1 mm 3 mps 741 mmHg 87%
    20:00 +4°C° 0.1 mm 3 mps 742 mmHg 88%
    21:00 +4°C° 0 mm 3 mps 742 mmHg 87%
    22:00 +4°C° 0 mm 4 mps 742 mmHg 87%
    23:00 +3°C° 0 mm 4 mps 743 mmHg 86%

    16 November, Friday

    Time Temperature Precipitation Wind Pressure Humidity
    00:00 +3°C° 0 mm 4 mps 743 mmHg 84%
    01:00 +3°C° 0 mm 4 mps 743 mmHg 82%
    02:00 +3°C° 0 mm 4 mps 744 mmHg 80%
    03:00 +2°C° 0 mm 3 mps 744 mmHg 80%
    04:00 +2°C° 0 mm 3 mps 744 mmHg 80%
    05:00 +2°C° 0 mm 3 mps 744 mmHg 80%
    06:00 +1°C° 0 mm 3 mps 745 mmHg 82%
    07:00 +1°C° 0 mm 3 mps 745 mmHg 84%
    08:00 0°C° 0 mm 3 mps 745 mmHg 86%
    09:00 +1°C° 0 mm 3 mps 746 mmHg 81%
    10:00 +2°C° 0 mm 3 mps 746 mmHg 76%
    11:00 +2°C° 0 mm 3 mps 746 mmHg 70%
    12:00 +3°C° 0 mm 3 mps 746 mmHg 67%
    13:00 +3°C° 0 mm 3 mps 746 mmHg 64%
    14:00 +3°C° 0 mm 3 mps 746 mmHg 60%
    15:00 +3°C° 0 mm 3 mps 746 mmHg 64%
    16:00 +2°C° 0 mm 3 mps 746 mmHg 68%
    17:00 +1°C° 0 mm 3 mps 746 mmHg 72%
    18:00 0°C° 0 mm 3 mps 746 mmHg 74%
    19:00 0°C° 0 mm 3 mps 746 mmHg 76%
    20:00 -1°C° 0 mm 3 mps 747 mmHg 78%
    21:00 -1°C° 0 mm 3 mps 747 mmHg 78%
    22:00 -2°C° 0 mm 2 mps 747 mmHg 78%
    23:00 -2°C° 0 mm 2 mps 747 mmHg 79%

    17 November, Saturday

    Time Temperature Precipitation Wind Pressure Humidity
    00:00 -2°C° 0 mm 2 mps 747 mmHg 78%
    01:00 -3°C° 0 mm 2 mps 747 mmHg 77%
    02:00 -3°C° 0 mm 2 mps 747 mmHg 77%
    03:00 -3°C° 0 mm 2 mps 747 mmHg 76%
    04:00 -3°C° 0 mm 2 mps 747 mmHg 76%
    05:00 -3°C° 0 mm 2 mps 747 mmHg 75%
    06:00 -3°C° 0 mm 2 mps 747 mmHg 74%
    07:00 -3°C° 0 mm 2 mps 747 mmHg 73%
    08:00 -4°C° 0 mm 2 mps 747 mmHg 72%
    09:00 -2°C° 0 mm 2 mps 747 mmHg 64%
    10:00 -1°C° 0 mm 2 mps 747 mmHg 55%
    11:00 +1°C° 0 mm 2 mps 748 mmHg 47%
    12:00 +2°C° 0 mm 2 mps 747 mmHg 44%
    13:00 +2°C° 0 mm 2 mps 747 mmHg 42%
    14:00 +3°C° 0 mm 2 mps 747 mmHg 39%
    15:00 +2°C° 0 mm 2 mps 747 mmHg 44%
    16:00 +1°C° 0 mm 2 mps 747 mmHg 48%
    17:00 -1°C° 0 mm 2 mps 747 mmHg 52%
    18:00 -2°C° 0 mm 2 mps 747 mmHg 52%
    19:00 -2°C° 0 mm 2 mps 747 mmHg 53%
    20:00 -2°C° 0 mm 2 mps 747 mmHg 53%
    21:00 0°C° 0 mm 1 mps 747 mmHg 53%
    22:00 -1°C° 0 mm 1 mps 746 mmHg 52%
    23:00 -1°C° 0 mm 1 mps 746 mmHg 51%
    Show more